PCM7660 KSMF-KRDD

Flight info

Callsign PCM7660
Flight time 0h 50m
Altitude 6000
Route RBL
Aircraft C208/L-SDFGR/C

Departure

Time 2026-05-05 03:53
Airport Sacramento International Airport (KSMF)

Arrival

Time 2026-05-05 04:43
Airport Redding Municipal Airport (KRDD)
Time Latitude Longitude Altitude Speed Heading
2026-05-05 03:18 38.69012 -121.59669 22 ft 0 kts 225°
2026-05-05 03:24 38.69011 -121.59671 22 ft 0 kts 242°
2026-05-05 03:24 38.69018 -121.59687 25 ft 4 kts 323°
2026-05-05 03:25 38.69027 -121.59690 23 ft 0 kts 359°
2026-05-05 03:25 38.69036 -121.59690 23 ft 3 kts
2026-05-05 03:25 38.69038 -121.59690 23 ft 0 kts
2026-05-05 03:29 38.69039 -121.59689 22 ft 1 kts
2026-05-05 03:29 38.69056 -121.59701 22 ft 5 kts 273°
2026-05-05 03:30 38.69056 -121.59755 22 ft 4 kts 271°
2026-05-05 03:30 38.69056 -121.59783 22 ft 3 kts 271°
2026-05-05 03:30 38.69056 -121.59794 22 ft 0 kts 270°
2026-05-05 03:44 38.69056 -121.59798 22 ft 2 kts 270°
2026-05-05 03:44 38.69059 -121.59840 24 ft 8 kts 290°
2026-05-05 03:44 38.69121 -121.59873 22 ft 13 kts 359°
2026-05-05 03:45 38.69230 -121.59871 22 ft 18 kts
2026-05-05 03:45 38.69361 -121.59869 22 ft 17 kts
2026-05-05 03:45 38.69468 -121.59867 22 ft 17 kts
2026-05-05 03:45 38.69585 -121.59865 22 ft 15 kts
2026-05-05 03:46 38.69699 -121.59862 22 ft 18 kts
2026-05-05 03:46 38.69827 -121.59862 22 ft 19 kts
2026-05-05 03:46 38.69963 -121.59859 22 ft 19 kts
2026-05-05 03:46 38.70092 -121.59857 22 ft 18 kts
2026-05-05 03:47 38.70212 -121.59854 22 ft 17 kts
2026-05-05 03:47 38.70327 -121.59854 22 ft 16 kts
2026-05-05 03:47 38.70437 -121.59851 23 ft 16 kts
2026-05-05 03:47 38.70544 -121.59849 22 ft 15 kts 360°
2026-05-05 03:48 38.70645 -121.59849 22 ft 14 kts
2026-05-05 03:48 38.70707 -121.59866 22 ft 7 kts 314°
2026-05-05 03:48 38.70717 -121.59925 22 ft 4 kts 268°
2026-05-05 03:48 38.70717 -121.59939 22 ft 2 kts 271°
2026-05-05 03:49 38.70717 -121.59974 22 ft 2 kts 270°
2026-05-05 03:49 38.70717 -121.59978 22 ft 1 kts 271°
2026-05-05 03:49 38.70718 -121.59990 22 ft 0 kts 272°
2026-05-05 03:51 38.70719 -121.60011 22 ft 5 kts 271°
2026-05-05 03:51 38.70710 -121.60085 23 ft 11 kts 239°
2026-05-05 03:51 38.70656 -121.60111 22 ft 2 kts 181°
2026-05-05 03:51 38.70597 -121.60112 23 ft 25 kts 181°
2026-05-05 03:52 38.70276 -121.60117 25 ft 65 kts 181°
2026-05-05 03:52 38.69723 -121.60124 89 ft 86 kts 173°
2026-05-05 03:52 38.69133 -121.60103 300 ft 82 kts 168°
2026-05-05 03:52 38.68563 -121.59995 448 ft 87 kts 164°
2026-05-05 03:53 38.67975 -121.59848 665 ft 87 kts 155°
2026-05-05 03:53 38.67730 -121.59206 838 ft 92 kts 75°
2026-05-05 03:53 38.68203 -121.58574 928 ft 107 kts 26°
2026-05-05 03:53 38.68928 -121.58225 1082 ft 117 kts 19°
2026-05-05 03:54 38.69712 -121.57815 1242 ft 126 kts 19°
2026-05-05 03:54 38.70546 -121.57384 1399 ft 133 kts 19°
2026-05-05 03:54 38.71422 -121.56931 1547 ft 138 kts 19°
2026-05-05 03:54 38.72325 -121.56466 1698 ft 141 kts 18°
2026-05-05 03:55 38.73238 -121.56547 1932 ft 131 kts 322°
2026-05-05 03:55 38.73980 -121.57185 2159 ft 129 kts 333°
2026-05-05 03:55 38.74805 -121.57599 2394 ft 128 kts 334°
2026-05-05 03:55 38.75632 -121.58016 2607 ft 127 kts 335°
2026-05-05 03:56 38.76453 -121.58417 2824 ft 126 kts 335°
2026-05-05 03:56 38.77268 -121.58812 3053 ft 125 kts 335°
2026-05-05 03:56 38.78079 -121.59203 3274 ft 124 kts 335°
2026-05-05 03:56 38.78887 -121.59590 3493 ft 124 kts 335°
2026-05-05 03:57 38.79689 -121.59975 3709 ft 123 kts 336°
2026-05-05 03:57 38.80486 -121.60357 3922 ft 122 kts 336°
2026-05-05 03:57 38.81284 -121.60739 4122 ft 123 kts 336°
2026-05-05 03:57 38.82085 -121.61124 4327 ft 123 kts 336°
2026-05-05 03:58 38.82888 -121.61509 4532 ft 124 kts 336°
2026-05-05 03:58 38.83694 -121.61895 4741 ft 124 kts 336°
2026-05-05 03:58 38.84500 -121.62282 4942 ft 124 kts 336°
2026-05-05 03:58 38.85305 -121.62669 5139 ft 123 kts 336°
2026-05-05 03:59 38.86112 -121.63056 5322 ft 125 kts 336°
2026-05-05 03:59 38.86927 -121.63447 5498 ft 125 kts 337°
2026-05-05 03:59 38.87747 -121.63840 5683 ft 126 kts 337°
2026-05-05 03:59 38.88572 -121.64237 5863 ft 127 kts 337°
2026-05-05 04:00 38.89406 -121.64638 5993 ft 132 kts 337°
2026-05-05 04:00 38.90307 -121.65068 6004 ft 144 kts 338°
2026-05-05 04:00 38.91271 -121.65531 5999 ft 152 kts 338°
2026-05-05 04:00 38.92282 -121.66016 6002 ft 157 kts 338°
2026-05-05 04:01 38.93318 -121.66516 5998 ft 161 kts 338°
2026-05-05 04:01 38.94376 -121.67023 6001 ft 163 kts 338°
2026-05-05 04:01 38.95443 -121.67539 6000 ft 164 kts 338°
2026-05-05 04:01 38.96517 -121.68056 6000 ft 165 kts 338°
2026-05-05 04:02 38.97594 -121.68575 6002 ft 165 kts 338°
2026-05-05 04:02 38.98672 -121.69094 5998 ft 166 kts 338°
2026-05-05 04:02 38.99752 -121.69615 6001 ft 166 kts 338°
2026-05-05 04:02 39.00831 -121.70137 5995 ft 166 kts 338°
2026-05-05 04:03 39.01912 -121.70658 6012 ft 166 kts 338°
2026-05-05 04:03 39.02991 -121.71179 6008 ft 166 kts 338°
2026-05-05 04:03 39.04070 -121.71699 6004 ft 166 kts 338°
2026-05-05 04:03 39.05151 -121.72220 6011 ft 166 kts 338°
2026-05-05 04:04 39.06233 -121.72743 6002 ft 166 kts 338°
2026-05-05 04:04 39.07300 -121.73258 5995 ft 162 kts 337°
2026-05-05 04:04 39.08331 -121.73759 5992 ft 159 kts 337°
2026-05-05 04:04 39.09378 -121.74267 5987 ft 158 kts 337°
2026-05-05 04:05 39.10392 -121.74753 5986 ft 157 kts 337°
2026-05-05 04:05 39.11382 -121.75232 5985 ft 157 kts 337°
2026-05-05 04:05 39.12400 -121.75727 5987 ft 156 kts 337°
2026-05-05 04:05 39.13412 -121.76217 5985 ft 155 kts 337°
2026-05-05 04:06 39.14418 -121.76708 5982 ft 154 kts 337°
2026-05-05 04:06 39.15426 -121.77194 5984 ft 155 kts 337°
2026-05-05 04:06 39.16432 -121.77683 5991 ft 154 kts 337°
2026-05-05 04:06 39.17437 -121.78167 5989 ft 154 kts 338°
2026-05-05 04:07 39.18434 -121.78652 5995 ft 153 kts 337°
2026-05-05 04:07 39.19435 -121.79136 5987 ft 154 kts 337°
2026-05-05 04:07 39.20434 -121.79623 5986 ft 154 kts 337°
2026-05-05 04:07 39.21438 -121.80109 5984 ft 154 kts 338°
2026-05-05 04:08 39.22442 -121.80597 5981 ft 153 kts 337°
2026-05-05 04:08 39.23434 -121.81078 5983 ft 152 kts 337°
2026-05-05 04:08 39.24426 -121.81562 5984 ft 152 kts 337°
2026-05-05 04:08 39.25420 -121.82042 5988 ft 153 kts 338°
2026-05-05 04:09 39.26415 -121.82523 5982 ft 153 kts 338°
2026-05-05 04:09 39.27411 -121.83011 5986 ft 153 kts 338°
2026-05-05 04:09 39.28403 -121.83496 5978 ft 152 kts 337°
2026-05-05 04:09 39.29394 -121.83977 5978 ft 152 kts 338°
2026-05-05 04:10 39.30382 -121.84457 5979 ft 152 kts 337°
2026-05-05 04:10 39.31370 -121.84939 5975 ft 152 kts 337°
2026-05-05 04:10 39.32359 -121.85421 5975 ft 152 kts 337°
2026-05-05 04:10 39.33348 -121.85901 5977 ft 152 kts 337°
2026-05-05 04:11 39.34333 -121.86383 5979 ft 151 kts 337°
2026-05-05 04:11 39.35315 -121.86861 5978 ft 151 kts 337°
2026-05-05 04:11 39.36297 -121.87340 5991 ft 151 kts 338°
2026-05-05 04:11 39.37279 -121.87819 5981 ft 151 kts 338°
2026-05-05 04:12 39.38258 -121.88296 5981 ft 150 kts 338°
2026-05-05 04:12 39.39232 -121.88775 5978 ft 150 kts 337°
2026-05-05 04:12 39.40205 -121.89249 5990 ft 149 kts 337°
2026-05-05 04:12 39.41178 -121.89723 5983 ft 150 kts 338°
2026-05-05 04:13 39.42152 -121.90201 5990 ft 150 kts 337°
2026-05-05 04:13 39.43129 -121.90676 5978 ft 150 kts 338°
2026-05-05 04:13 39.44104 -121.91156 5978 ft 150 kts 338°
2026-05-05 04:13 39.45079 -121.91629 5978 ft 149 kts 338°
2026-05-05 04:14 39.46051 -121.92104 5976 ft 149 kts 338°
2026-05-05 04:14 39.47007 -121.92589 5977 ft 150 kts 336°
2026-05-05 04:14 39.47966 -121.93106 5977 ft 149 kts 335°
2026-05-05 04:14 39.48918 -121.93648 5979 ft 149 kts 334°
2026-05-05 04:15 39.49861 -121.94216 5977 ft 149 kts 333°
2026-05-05 04:15 39.50796 -121.94808 5973 ft 150 kts 332°
2026-05-05 04:15 39.51725 -121.95424 5973 ft 150 kts 331°
2026-05-05 04:15 39.52648 -121.96062 5972 ft 151 kts 330°
2026-05-05 04:16 39.53561 -121.96720 5980 ft 150 kts 329°
2026-05-05 04:16 39.54464 -121.97401 5972 ft 150 kts 328°
2026-05-05 04:16 39.55354 -121.98107 5965 ft 150 kts 327°
2026-05-05 04:16 39.56233 -121.98833 5969 ft 150 kts 326°
2026-05-05 04:17 39.57104 -121.99585 5965 ft 151 kts 324°
2026-05-05 04:17 39.57967 -122.00361 5962 ft 151 kts 323°
2026-05-05 04:17 39.58819 -122.01161 5965 ft 151 kts 322°
2026-05-05 04:17 39.59659 -122.01985 5964 ft 152 kts 321°
2026-05-05 04:18 39.60529 -122.02750 5954 ft 151 kts 338°
2026-05-05 04:18 39.61539 -122.03085 5993 ft 150 kts 345°
2026-05-05 04:18 39.62554 -122.03408 5993 ft 151 kts 343°
2026-05-05 04:18 39.63565 -122.03781 5992 ft 151 kts 341°
2026-05-05 04:19 39.64568 -122.04198 5991 ft 152 kts 340°
2026-05-05 04:19 39.65571 -122.04623 5990 ft 152 kts 340°
2026-05-05 04:19 39.66573 -122.05050 5993 ft 152 kts 340°
2026-05-05 04:19 39.67577 -122.05480 5993 ft 152 kts 340°
2026-05-05 04:20 39.68585 -122.05910 5994 ft 153 kts 340°
2026-05-05 04:20 39.69595 -122.06339 5994 ft 152 kts 340°
2026-05-05 04:20 39.70261 -122.06621 5992 ft 152 kts 340°
2026-05-05 04:20 39.71263 -122.07051 5993 ft 152 kts 340°
2026-05-05 04:21 39.72267 -122.07481 5993 ft 152 kts 340°
2026-05-05 04:21 39.73272 -122.07911 5991 ft 152 kts 340°
2026-05-05 04:21 39.74279 -122.08339 5991 ft 153 kts 340°
2026-05-05 04:21 39.75290 -122.08772 5987 ft 153 kts 340°
2026-05-05 04:22 39.76621 -122.09345 5986 ft 152 kts 340°
2026-05-05 04:22 39.77299 -122.09635 5992 ft 152 kts 340°
2026-05-05 04:22 39.78303 -122.10061 5989 ft 152 kts 340°
2026-05-05 04:22 39.79308 -122.10492 5989 ft 152 kts 340°
2026-05-05 04:23 39.80313 -122.10923 5993 ft 152 kts 340°
2026-05-05 04:23 39.81316 -122.11352 5988 ft 152 kts 340°
2026-05-05 04:23 39.82319 -122.11784 5991 ft 152 kts 340°
2026-05-05 04:23 39.83324 -122.12213 5994 ft 152 kts 340°
2026-05-05 04:24 39.84333 -122.12643 5996 ft 153 kts 340°
2026-05-05 04:24 39.85338 -122.13078 5998 ft 152 kts 341°
2026-05-05 04:24 39.86339 -122.13506 6000 ft 151 kts 341°
2026-05-05 04:25 39.88332 -122.14358 6002 ft 153 kts 340°
2026-05-05 04:25 39.89354 -122.14802 6006 ft 153 kts 340°
2026-05-05 04:25 39.90368 -122.15235 6007 ft 153 kts 341°
2026-05-05 04:25 39.91365 -122.15664 6009 ft 153 kts 340°
2026-05-05 04:26 39.92374 -122.16098 6006 ft 153 kts 341°
2026-05-05 04:26 39.93382 -122.16530 6007 ft 153 kts 341°
2026-05-05 04:26 39.94390 -122.16964 6005 ft 153 kts 341°
2026-05-05 04:26 39.95398 -122.17398 6010 ft 152 kts 341°
2026-05-05 04:27 39.96403 -122.17830 6010 ft 152 kts 341°
2026-05-05 04:27 39.97404 -122.18262 6012 ft 152 kts 341°
2026-05-05 04:27 39.98409 -122.18695 6011 ft 152 kts 341°
2026-05-05 04:27 39.99417 -122.19129 6014 ft 153 kts 341°
2026-05-05 04:28 40.00426 -122.19564 6011 ft 152 kts 341°
2026-05-05 04:28 40.01430 -122.19996 6022 ft 152 kts 341°
2026-05-05 04:28 40.02434 -122.20430 6022 ft 152 kts 341°
2026-05-05 04:28 40.03441 -122.20864 6024 ft 153 kts 341°
2026-05-05 04:29 40.04451 -122.21298 6031 ft 153 kts 341°
2026-05-05 04:29 40.05460 -122.21732 6032 ft 153 kts 341°
2026-05-05 04:29 40.06469 -122.22169 6037 ft 153 kts 341°
2026-05-05 04:29 40.07482 -122.22608 6037 ft 154 kts 341°
2026-05-05 04:30 40.08499 -122.23046 6037 ft 154 kts 341°
2026-05-05 04:30 40.09515 -122.23485 6033 ft 154 kts 341°
2026-05-05 04:30 40.10557 -122.23760 6029 ft 153 kts 355°
2026-05-05 04:30 40.11619 -122.23885 6031 ft 153 kts 354°
2026-05-05 04:31 40.12682 -122.24033 6033 ft 154 kts 353°
2026-05-05 04:31 40.13749 -122.24181 6032 ft 155 kts 353°
2026-05-05 04:31 40.14821 -122.24330 6031 ft 155 kts 353°
2026-05-05 04:31 40.15893 -122.24480 6026 ft 155 kts 354°
2026-05-05 04:32 40.16938 -122.24624 6026 ft 155 kts 354°
2026-05-05 04:32 40.18017 -122.24681 6026 ft 155 kts 360°
2026-05-05 04:32 40.19097 -122.24677 6029 ft 155 kts 360°
2026-05-05 04:32 40.20177 -122.24673 6026 ft 155 kts
2026-05-05 04:33 40.21256 -122.24671 6028 ft 155 kts
2026-05-05 04:33 40.22338 -122.24670 6025 ft 155 kts
2026-05-05 04:33 40.23405 -122.24673 6026 ft 155 kts
2026-05-05 04:33 40.24486 -122.24674 6027 ft 155 kts 360°
2026-05-05 04:34 40.25566 -122.24674 6024 ft 155 kts 360°
2026-05-05 04:34 40.26662 -122.24674 6022 ft 156 kts
2026-05-05 04:34 40.27746 -122.24675 6018 ft 156 kts 360°
2026-05-05 04:34 40.28830 -122.24674 6019 ft 156 kts 360°
2026-05-05 04:35 40.29899 -122.24671 6016 ft 156 kts
2026-05-05 04:35 40.30988 -122.24669 5935 ft 159 kts
2026-05-05 04:35 40.32079 -122.24663 5726 ft 155 kts
2026-05-05 04:35 40.33142 -122.24651 5474 ft 149 kts
2026-05-05 04:36 40.34155 -122.24635 5269 ft 143 kts
2026-05-05 04:36 40.35143 -122.24619 5056 ft 141 kts
2026-05-05 04:36 40.36122 -122.24603 4852 ft 142 kts 360°
2026-05-05 04:36 40.37129 -122.24584 4658 ft 147 kts
2026-05-05 04:37 40.38165 -122.24561 4462 ft 151 kts
2026-05-05 04:37 40.39222 -122.24539 4268 ft 153 kts 360°
2026-05-05 04:37 40.40296 -122.24515 4067 ft 155 kts
2026-05-05 04:37 40.41378 -122.24488 3877 ft 156 kts
2026-05-05 04:38 40.42468 -122.24465 3681 ft 157 kts
2026-05-05 04:38 40.43554 -122.24443 3483 ft 156 kts
2026-05-05 04:38 40.44639 -122.24421 3282 ft 155 kts
2026-05-05 04:38 40.45719 -122.24404 3078 ft 155 kts
2026-05-05 04:39 40.46795 -122.24386 2875 ft 155 kts
2026-05-05 04:39 40.47860 -122.24369 2695 ft 151 kts
2026-05-05 04:39 40.48898 -122.24350 2488 ft 148 kts
2026-05-05 04:39 40.49926 -122.24326 2278 ft 147 kts
2026-05-05 04:40 40.50945 -122.24304 2071 ft 146 kts
2026-05-05 04:40 40.51930 -122.24284 2005 ft 138 kts 359°
2026-05-05 04:40 40.52889 -122.24269 2001 ft 137 kts 360°
2026-05-05 04:40 40.53868 -122.24263 1847 ft 146 kts 353°
2026-05-05 04:41 40.54692 -122.24918 1814 ft 137 kts 298°
2026-05-05 04:41 40.55046 -122.26012 1804 ft 126 kts 290°
2026-05-05 04:41 40.55224 -122.27089 1796 ft 116 kts 269°
2026-05-05 04:41 40.55221 -122.28178 1466 ft 125 kts 265°
2026-05-05 04:42 40.54981 -122.29215 1200 ft 114 kts 217°
2026-05-05 04:42 40.54283 -122.29456 1017 ft 101 kts 179°
2026-05-05 04:42 40.53640 -122.29462 861 ft 86 kts 182°
2026-05-05 04:42 40.53103 -122.29486 738 ft 73 kts 175°
2026-05-05 04:43 40.52590 -122.29478 656 ft 74 kts 178°
2026-05-05 04:43 40.52076 -122.29483 551 ft 73 kts 179°
2026-05-05 04:43 40.51597 -122.29485 505 ft 60 kts 178°
2026-05-05 04:43 40.51236 -122.29486 502 ft 46 kts 180°
2026-05-05 04:44 40.50951 -122.29487 502 ft 38 kts 180°
2026-05-05 04:44 40.50812 -122.29524 502 ft 13 kts 251°
2026-05-05 04:44 40.50833 -122.29612 502 ft 8 kts 255°
2026-05-05 04:44 40.50767 -122.29633 502 ft 13 kts 179°
2026-05-05 04:45 40.50657 -122.29633 503 ft 18 kts 180°
2026-05-05 04:45 40.50512 -122.29633 503 ft 23 kts 180°
2026-05-05 04:45 40.50397 -122.29634 502 ft 12 kts 180°
2026-05-05 04:45 40.50304 -122.29633 502 ft 11 kts 181°
2026-05-05 04:46 40.50277 -122.29704 502 ft 10 kts 307°
2026-05-05 04:46 40.50337 -122.29785 502 ft 13 kts 316°
2026-05-05 04:46 40.50357 -122.29856 502 ft 9 kts 243°
2026-05-05 04:46 40.50314 -122.29924 502 ft 8 kts 201°
2026-05-05 04:47 40.50281 -122.29908 502 ft 5 kts 84°
2026-05-05 04:47 40.50296 -122.29897 502 ft 0 kts 358°